Hourly Data Report for September 27, 2019

QUALICUM BEACH AIRPORT
BRITISH COLUMBIA
Current Station Operator: ECCC - MSC

49°20'14.000" N
124°23'38.000" W
58.20 m
1026562
71766
VOQ

Download Data

Hourly Data (September 2019)
Hourly Data Report for September 27, 2019
TIME
LST
Temp Definition
°C
Dew Point Definition
°C
Rel Hum Definition
%
Precip. Amount Definition
mm

Wind Dir Definition
10's deg

Wind Spd Definition
km/h
Visibility Definition
km
Stn Press Definition
kPa
Hmdx Definition


Wind Chill Definition


Weather Definition


00:00 10.3 5.2 71 0.0 28 10   100.82     LegendNANA
01:00 8.9 5.0 76 0.0 28 7   100.80     LegendNANA
02:00 8.6 4.9 77 0.0 27 8   100.77     LegendNANA
03:00 7.3 4.5 83 0.0 27 5   100.73     LegendNANA
04:00 6.9 4.8 86 0.0 26 5   100.70     LegendNANA
05:00 7.9 4.5 79 0.0 27 10   100.66     LegendNANA
06:00 6.8 4.2 84 0.0 27 7   100.62     LegendNANA
07:00 7.3 4.9 85 0.0 27 5   100.64     LegendNANA
08:00 9.9 6.0 77 0.0 20 4   100.61     LegendNANA
09:00 13.5 4.9 56 0.0 32 1   100.56     LegendNANA
10:00 13.4 3.5 51 0.0 30 13   100.51     LegendNANA
11:00 14.1 4.3 52 0.0 33 12   100.48     LegendNANA
12:00 14.4 6.4 58 0.0 34 19   100.42     LegendNANA
13:00 14.5 6.3 58 0.0 33 20   100.37     LegendNANA
14:00 13.6 6.5 62 0.0 33 18   100.32     LegendNANA
15:00 12.5 5.0 60 0.0 33 20   100.30     LegendNANA
16:00 11.8 5.2 64 0.0 33 16   100.32     LegendNANA
17:00 9.8 6.8 82 0.3 27 6   100.33     LegendNANA
18:00 8.7 7.1 90 2.3 26 9   100.31     LegendNANA
19:00 10.0 8.2 89 0.4 4 4   100.38     LegendNANA
20:00 11.0 7.9 81 0.0 33 9   100.40     LegendNANA
21:00 8.1 7.1 93 0.0 24 6   100.37     LegendNANA
22:00 9.3 7.4 88 0.0 27 8   100.38     LegendNANA
23:00 8.7 5.9 83 0.0 28 9   100.36     LegendNANA

Notes on Data Quality.

Legend

  • E = Estimated
  • M = Missing
  • NA = Not Available*
  • [empty] = Indicates an unobserved value
Date modified: